Retour au catalogue

STARLINK-4097

ActifCommunicationsVLEO
NORAD 53265·PAYLOAD·🇺🇸 United States

Lancé Jul 24, 2022 depuis Cape Canaveral Space Force Station

Loading…

Prochains Passages (prochaines 24 heures)

TLE

FraisSource: CelesTrak SupGP

Époque: Sep 15, 2026, 01:30 UTC

1 53265C 22086Z   26258.06298611 -.00053780  00000+0 -15388-2 0  2584
2 53265  53.1584  51.8022 0001212  81.3013 228.7034 15.35423723    11

Suivez STARLINK-4097 en temps réel avec AllMySat

Download on the App Store